Погода в Ларихе

Россия / Тюменская область     55°52′06″N   69°20′24″E
темп.,
°C
ветер,
м/с
пор.,
м/с
влажн.,
%
обл.,
%
осадки,
мм/ч
давл.,
гПа
погр.,
м
15 апреля, чт
чт1523:00+8зюз48935 0.0 1027141
02:00+7зюз47915 0.0 1026113
05:00+6зюз47915 0.0 1026115
08:00+10зюз47855 0.0 1025195
11:00+15з577025 0.0 1024485
14:00+18зюз685943 0.0 1022899
17:00+17зюз68675 0.0 1021770
20:00+12юз5118510 0.0 1020251
16 апреля, пт
пт1623:00+9юз5118336 0.0 1019222
02:00+8юз5128149 0.0 1017202
05:00+7зюз41084100 0.0 1017188
08:00+10сз5980100 0.0 1018431
11:00+6ссв7982100 0.0 1021670
14:00+6ссв4869100 0.0 1023915
17:00+9ссв674527 0.0 10231555
20:00+5ссв36615 0.0 1025100
17 апреля, сб
сб1723:00+2св49725 0.0 1025227
02:000в23805 0.0 102550
05:000ююв22805 0.0 102522
08:00+3зсз23703 0.0 1025344
11:00+7сз45435 0.0 10241469
14:00+9сз573867 0.0 10232219
17:00+9сз56345 0.0 10222221
20:00+5с2253100 0.0 102211
18 апреля, вс
вс1823:00+5ю3458100 0.0 102153
02:00+4юз51367100 0.0 1017356
05:00+3юз61372100 0.0 1015353
08:00+5зюз71364100 0.0 1012751
11:00+7зсз81255100 0.0 10101724
14:00+5сз10134892 0.4 10121726
17:000ссз11145478 0.4 10171664
20:00−3с914565 0.0 10221380
19 апреля, пн
пн1923:00−5с812505 0.0 10241214
02:00−6с712505 0.0 10261181
05:00−7с710525 0.0 10281186
08:00−6с8104196 0.0 10301474
11:00−3с7932100 0.0 10302003
14:00−1с7930100 0.0 10312343
17:00−1с7830100 0.0 10312321
20:00−3с364254 0.0 1032188